CHH747 ZJHK-WSSS

Flight info

Callsign CHH747
Flight time 2h 50m
Altitude 34100
Route UPRIS8XD UPRIS G221 SYX/K0867S1100 G221 SAGSU/K0872S1070 G221 BUNTA/K0870F360 G221 PCA W12 BMT Q1 AC L644 CN L642 ESPOB/N0471F360 Q801 ESBUM/N0468F370 Q802 ELALO ELALO1B
Aircraft B38M/M-SDE1FGHILORVWXY/HB1

Departure

Time 2026-05-05 07:52
Airport Haikou Meilan International Airport (ZJHK)

Arrival

Time 2026-05-05 10:42
Airport Singapore Changi Airport (WSSS)
Time Latitude Longitude Altitude Speed Heading
2026-05-05 07:11 19.94995 110.46104 59 ft 0 kts 204°
2026-05-05 07:39 19.95010 110.46110 54 ft 4 kts 201°
2026-05-05 07:39 19.95030 110.46120 56 ft 4 kts 209°
2026-05-05 07:39 19.95051 110.46136 56 ft 4 kts 231°
2026-05-05 07:40 19.95063 110.46161 53 ft 4 kts 260°
2026-05-05 07:40 19.95064 110.46174 56 ft 1 kts 269°
2026-05-05 07:45 19.95064 110.46173 56 ft 1 kts 269°
2026-05-05 07:45 19.95064 110.46168 53 ft 1 kts 269°
2026-05-05 07:45 19.95064 110.46152 55 ft 3 kts 269°
2026-05-05 07:46 19.95064 110.46121 55 ft 5 kts 269°
2026-05-05 07:46 19.95063 110.46077 60 ft 7 kts 270°
2026-05-05 07:46 19.95063 110.46018 60 ft 9 kts 270°
2026-05-05 07:46 19.95097 110.45967 55 ft 10 kts 352°
2026-05-05 07:47 19.95169 110.45964 55 ft 11 kts 345°
2026-05-05 07:47 19.95204 110.45895 59 ft 12 kts 271°
2026-05-05 07:47 19.95204 110.45802 59 ft 14 kts 270°
2026-05-05 07:47 19.95204 110.45689 59 ft 17 kts 270°
2026-05-05 07:48 19.95203 110.45559 58 ft 19 kts 270°
2026-05-05 07:48 19.95203 110.45416 57 ft 20 kts 270°
2026-05-05 07:48 19.95203 110.45262 57 ft 22 kts 270°
2026-05-05 07:48 19.95203 110.45096 55 ft 23 kts 270°
2026-05-05 07:49 19.95202 110.44918 54 ft 25 kts 270°
2026-05-05 07:49 19.95239 110.44821 54 ft 10 kts 348°
2026-05-05 07:49 19.95320 110.44830 49 ft 13 kts 22°
2026-05-05 07:49 19.95372 110.44906 49 ft 14 kts 89°
2026-05-05 07:50 19.95372 110.44927 53 ft 0 kts 90°
2026-05-05 07:50 19.95372 110.44931 53 ft 1 kts 90°
2026-05-05 07:50 19.95372 110.44936 53 ft 1 kts 90°
2026-05-05 07:50 19.95372 110.44942 53 ft 1 kts 90°
2026-05-05 07:51 19.95372 110.44952 53 ft 3 kts 90°
2026-05-05 07:51 19.95372 110.45025 54 ft 21 kts 90°
2026-05-05 07:51 19.95373 110.45452 58 ft 93 kts 89°
2026-05-05 07:51 19.95376 110.46351 58 ft 152 kts 90°
2026-05-05 07:52 19.95363 110.47619 339 ft 176 kts 89°
2026-05-05 07:52 19.95439 110.48897 1172 ft 170 kts 79°
2026-05-05 07:52 19.95647 110.50141 1923 ft 178 kts 77°
2026-05-05 07:52 19.96116 110.51431 2344 ft 202 kts 53°
2026-05-05 07:53 19.97358 110.52319 2613 ft 236 kts 12°
2026-05-05 07:53 19.98956 110.52081 3550 ft 235 kts 333°
2026-05-05 07:53 20.00409 110.51202 4373 ft 246 kts 332°
2026-05-05 07:53 20.01949 110.50357 5252 ft 249 kts 332°
2026-05-05 07:54 20.03492 110.49516 6290 ft 251 kts 331°
2026-05-05 07:54 20.05078 110.48698 7273 ft 255 kts 335°
2026-05-05 07:54 20.06683 110.47878 8205 ft 258 kts 329°
2026-05-05 07:54 20.08292 110.46981 9019 ft 263 kts 330°
2026-05-05 07:55 20.09923 110.46089 9860 ft 265 kts 330°
2026-05-05 07:55 20.11574 110.45194 10574 ft 268 kts 330°
2026-05-05 07:55 20.13252 110.44290 11293 ft 271 kts 330°
2026-05-05 07:55 20.14945 110.43381 11985 ft 275 kts 330°
2026-05-05 07:56 20.16662 110.42459 12700 ft 278 kts 330°
2026-05-05 07:56 20.18395 110.41530 13388 ft 281 kts 330°
2026-05-05 07:56 20.20108 110.40517 13902 ft 288 kts 319°
2026-05-05 07:56 20.21436 110.38884 14114 ft 300 kts 294°
2026-05-05 07:57 20.21962 110.36701 14310 ft 315 kts 270°
2026-05-05 07:57 20.21522 110.34373 14479 ft 333 kts 246°
2026-05-05 07:57 20.20139 110.32313 14585 ft 354 kts 225°
2026-05-05 07:57 20.18263 110.30526 14707 ft 371 kts 224°
2026-05-05 07:58 20.16363 110.28655 14948 ft 380 kts 225°
2026-05-05 07:58 20.14413 110.26712 15520 ft 380 kts 225°
2026-05-05 07:58 20.12479 110.24767 15965 ft 384 kts 225°
2026-05-05 07:58 20.10536 110.22805 16455 ft 385 kts 225°
2026-05-05 07:59 20.08631 110.20879 16900 ft 388 kts 225°
2026-05-05 07:59 20.06658 110.18882 17342 ft 390 kts 225°
2026-05-05 07:59 20.04699 110.16900 17775 ft 392 kts 225°
2026-05-05 07:59 20.02714 110.14900 18203 ft 394 kts 224°
2026-05-05 08:00 20.00425 110.13266 18564 ft 401 kts 208°
2026-05-05 08:00 19.97897 110.11994 18857 ft 404 kts 208°
2026-05-05 08:00 19.95338 110.10722 19202 ft 406 kts 207°
2026-05-05 08:00 19.92760 110.09459 19518 ft 409 kts 207°
2026-05-05 08:01 19.90165 110.08201 19845 ft 411 kts 207°
2026-05-05 08:01 19.87555 110.06940 20174 ft 413 kts 207°
2026-05-05 08:01 19.84928 110.05673 20492 ft 415 kts 207°
2026-05-05 08:01 19.82304 110.04409 20836 ft 418 kts 207°
2026-05-05 08:02 19.79648 110.03130 21208 ft 420 kts 207°
2026-05-05 08:02 19.76984 110.01847 21537 ft 422 kts 207°
2026-05-05 08:02 19.74303 110.00557 21855 ft 424 kts 207°
2026-05-05 08:02 19.71609 109.99261 22182 ft 426 kts 207°
2026-05-05 08:03 19.68897 109.97957 22501 ft 428 kts 207°
2026-05-05 08:03 19.66176 109.96649 22804 ft 430 kts 207°
2026-05-05 08:03 19.63444 109.95337 23075 ft 433 kts 207°
2026-05-05 08:03 19.60702 109.94020 23358 ft 435 kts 207°
2026-05-05 08:04 19.57974 109.92710 23632 ft 437 kts 207°
2026-05-05 08:04 19.55202 109.91379 23887 ft 439 kts 207°
2026-05-05 08:04 19.52408 109.90039 24134 ft 441 kts 207°
2026-05-05 08:04 19.49573 109.88679 24381 ft 443 kts 207°
2026-05-05 08:05 19.46798 109.87349 24639 ft 444 kts 207°
2026-05-05 08:05 19.43980 109.85998 24886 ft 447 kts 207°
2026-05-05 08:05 19.41140 109.84638 25136 ft 448 kts 207°
2026-05-05 08:05 19.38307 109.83281 25383 ft 450 kts 207°
2026-05-05 08:06 19.35449 109.81913 25627 ft 452 kts 207°
2026-05-05 08:06 19.32572 109.80537 25837 ft 455 kts 207°
2026-05-05 08:06 19.29680 109.79154 26062 ft 457 kts 207°
2026-05-05 08:06 19.26777 109.77765 26312 ft 459 kts 207°
2026-05-05 08:07 19.23881 109.76353 26539 ft 460 kts 208°
2026-05-05 08:07 19.20969 109.74919 26801 ft 462 kts 207°
2026-05-05 08:07 19.18042 109.73481 27038 ft 464 kts 208°
2026-05-05 08:07 19.15117 109.72067 27263 ft 466 kts 207°
2026-05-05 08:08 19.12156 109.70646 27457 ft 468 kts 207°
2026-05-05 08:08 19.09194 109.69223 27693 ft 469 kts 207°
2026-05-05 08:08 19.06217 109.67793 27904 ft 471 kts 207°
2026-05-05 08:08 19.03228 109.66358 28121 ft 473 kts 207°
2026-05-05 08:09 19.00227 109.64917 28352 ft 474 kts 207°
2026-05-05 08:09 18.97219 109.63473 28566 ft 476 kts 207°
2026-05-05 08:09 18.94196 109.62023 28782 ft 478 kts 207°
2026-05-05 08:09 18.91176 109.60575 28992 ft 480 kts 207°
2026-05-05 08:10 18.88133 109.59116 29201 ft 481 kts 207°
2026-05-05 08:10 18.85079 109.57653 29412 ft 483 kts 207°
2026-05-05 08:10 18.82013 109.56185 29599 ft 484 kts 207°
2026-05-05 08:10 18.78951 109.54719 29880 ft 484 kts 207°
2026-05-05 08:11 18.75881 109.53250 30141 ft 483 kts 207°
2026-05-05 08:11 18.72818 109.51785 30398 ft 483 kts 207°
2026-05-05 08:11 18.69773 109.50329 30657 ft 483 kts 207°
2026-05-05 08:11 18.66717 109.48868 30902 ft 483 kts 207°
2026-05-05 08:12 18.63660 109.47408 31162 ft 482 kts 208°
2026-05-05 08:12 18.60609 109.45951 31441 ft 481 kts 207°
2026-05-05 08:12 18.57564 109.44497 31710 ft 480 kts 207°
2026-05-05 08:12 18.54515 109.43041 31981 ft 480 kts 207°
2026-05-05 08:13 18.51485 109.41580 32243 ft 478 kts 210°
2026-05-05 08:13 18.48753 109.39652 32533 ft 469 kts 226°
2026-05-05 08:13 18.46559 109.37169 32793 ft 465 kts 233°
2026-05-05 08:13 18.44486 109.34611 33002 ft 464 kts 233°
2026-05-05 08:14 18.42412 109.31999 33176 ft 466 kts 233°
2026-05-05 08:14 18.40351 109.29370 33421 ft 466 kts 234°
2026-05-05 08:14 18.38300 109.26734 33682 ft 465 kts 234°
2026-05-05 08:14 18.36254 109.24099 33938 ft 465 kts 234°
2026-05-05 08:15 18.31601 109.19376 33970 ft 472 kts 213°
2026-05-05 08:15 18.28591 109.17982 34005 ft 480 kts 199°
2026-05-05 08:15 18.25270 109.17398 34052 ft 489 kts 185°
2026-05-05 08:16 18.21863 109.17292 34264 ft 490 kts 185°
2026-05-05 08:16 18.18454 109.17201 34470 ft 490 kts 184°
2026-05-05 08:16 18.15055 109.17134 34712 ft 489 kts 184°
2026-05-05 08:16 18.11654 109.17083 34943 ft 488 kts 184°
2026-05-05 08:17 18.08268 109.17037 35203 ft 486 kts 184°
2026-05-05 08:17 18.04886 109.16993 35436 ft 486 kts 184°
2026-05-05 08:17 18.01512 109.16949 35673 ft 485 kts 184°
2026-05-05 08:17 17.99276 109.16920 35828 ft 484 kts 184°
2026-05-05 08:18 17.95919 109.16876 36003 ft 483 kts 184°
2026-05-05 08:18 17.91421 109.16818 35997 ft 482 kts 184°
2026-05-05 08:18 17.85864 109.16745 36005 ft 481 kts 184°
2026-05-05 08:19 17.79186 109.16659 35995 ft 481 kts 184°
2026-05-05 08:19 17.72494 109.16572 35997 ft 481 kts 184°
2026-05-05 08:20 17.65803 109.16492 35995 ft 481 kts 184°
2026-05-05 08:20 17.59112 109.16424 35995 ft 481 kts 184°
2026-05-05 08:21 17.52441 109.16363 35994 ft 481 kts 182°
2026-05-05 08:21 17.49106 109.16837 35966 ft 486 kts 166°
2026-05-05 08:21 17.45882 109.17911 36011 ft 487 kts 165°
2026-05-05 08:22 17.39432 109.20077 35999 ft 487 kts 164°
2026-05-05 08:22 17.32993 109.22304 35996 ft 487 kts 164°
2026-05-05 08:23 17.26572 109.24532 35996 ft 487 kts 164°
2026-05-05 08:23 17.20140 109.26763 35995 ft 487 kts 164°
2026-05-05 08:24 17.13702 109.28995 35994 ft 487 kts 164°
2026-05-05 08:24 17.07294 109.31215 35992 ft 487 kts 164°
2026-05-05 08:25 17.00857 109.33443 35993 ft 487 kts 164°
2026-05-05 08:25 16.94465 109.35653 35888 ft 486 kts 164°
2026-05-05 08:26 16.88038 109.37875 35900 ft 487 kts 164°
2026-05-05 08:26 16.81501 109.39048 35885 ft 474 kts 188°
2026-05-05 08:27 16.74902 109.38403 35885 ft 477 kts 189°
2026-05-05 08:27 16.68309 109.37636 35894 ft 477 kts 190°
2026-05-05 08:28 16.61718 109.36827 35895 ft 476 kts 190°
2026-05-05 08:28 16.55146 109.36016 35895 ft 477 kts 190°
2026-05-05 08:29 16.48563 109.35203 35895 ft 477 kts 190°
2026-05-05 08:30 16.38699 109.33987 35890 ft 475 kts 190°
2026-05-05 08:30 16.32154 109.33181 35896 ft 475 kts 190°
2026-05-05 08:31 16.25595 109.32374 35896 ft 475 kts 190°
2026-05-05 08:31 16.19026 109.31566 35892 ft 475 kts 190°
2026-05-05 08:32 16.12461 109.30759 35885 ft 475 kts 189°
2026-05-05 08:32 16.05929 109.29956 35888 ft 473 kts 189°
2026-05-05 08:33 15.99383 109.29152 35893 ft 474 kts 189°
2026-05-05 08:33 15.92845 109.28350 35892 ft 473 kts 189°
2026-05-05 08:34 15.86346 109.27554 35890 ft 473 kts 189°
2026-05-05 08:34 15.79827 109.26755 35884 ft 473 kts 189°
2026-05-05 08:35 15.73315 109.25957 35886 ft 470 kts 189°
2026-05-05 08:35 15.66818 109.25162 35890 ft 470 kts 189°
2026-05-05 08:36 15.60331 109.24367 35892 ft 470 kts 189°
2026-05-05 08:36 15.53825 109.23567 35890 ft 470 kts 189°
2026-05-05 08:37 15.47319 109.22767 35890 ft 471 kts 190°
2026-05-05 08:37 15.40794 109.21965 35891 ft 474 kts 189°
2026-05-05 08:38 15.34272 109.21164 35886 ft 473 kts 189°
2026-05-05 08:38 15.27726 109.20361 35886 ft 473 kts 189°
2026-05-05 08:39 15.21187 109.19559 35889 ft 473 kts 189°
2026-05-05 08:39 15.14642 109.18757 35883 ft 473 kts 189°
2026-05-05 08:40 15.08121 109.17958 35885 ft 474 kts 189°
2026-05-05 08:40 15.01577 109.17157 35886 ft 474 kts 189°
2026-05-05 08:41 14.95032 109.16357 35887 ft 474 kts 189°
2026-05-05 08:41 14.88488 109.15556 35887 ft 474 kts 189°
2026-05-05 08:42 14.81957 109.14759 35887 ft 474 kts 189°
2026-05-05 08:42 14.75431 109.13962 35883 ft 471 kts 189°
2026-05-05 08:43 14.68938 109.13169 35887 ft 471 kts 189°
2026-05-05 08:43 14.62433 109.12376 35887 ft 471 kts 189°
2026-05-05 08:44 14.55947 109.11585 35897 ft 470 kts 189°
2026-05-05 08:44 14.49451 109.10794 35895 ft 469 kts 189°
2026-05-05 08:45 14.42964 109.10004 35897 ft 470 kts 189°
2026-05-05 08:45 14.36480 109.09215 35904 ft 470 kts 189°
2026-05-05 08:46 14.30044 109.08433 35890 ft 469 kts 189°
2026-05-05 08:46 14.23560 109.07644 35889 ft 469 kts 189°
2026-05-05 08:47 14.17062 109.06855 35891 ft 469 kts 189°
2026-05-05 08:47 14.10595 109.06070 35892 ft 469 kts 189°
2026-05-05 08:48 14.04115 109.05284 35887 ft 469 kts 189°
2026-05-05 08:48 13.97653 109.04392 35870 ft 466 kts 198°
2026-05-05 08:48 13.94681 109.03168 35873 ft 459 kts 212°
2026-05-05 08:49 13.91989 109.01410 35892 ft 460 kts 215°
2026-05-05 08:49 13.86670 108.97747 35898 ft 461 kts 216°
2026-05-05 08:50 13.81393 108.94000 35894 ft 460 kts 217°
2026-05-05 08:50 13.76134 108.90241 35896 ft 460 kts 217°
2026-05-05 08:51 13.70880 108.86484 35888 ft 460 kts 217°
2026-05-05 08:51 13.65638 108.82737 35883 ft 460 kts 217°
2026-05-05 08:52 13.60380 108.78982 35887 ft 460 kts 217°
2026-05-05 08:52 13.55127 108.75233 35889 ft 459 kts 217°
2026-05-05 08:53 13.49873 108.71484 35901 ft 460 kts 217°
2026-05-05 08:53 13.44633 108.67748 35884 ft 459 kts 216°
2026-05-05 08:54 13.39424 108.64036 35884 ft 459 kts 217°
2026-05-05 08:54 13.34140 108.60272 35887 ft 459 kts 216°
2026-05-05 08:55 13.28927 108.56556 35877 ft 459 kts 217°
2026-05-05 08:55 13.23690 108.52824 35875 ft 459 kts 217°
2026-05-05 08:56 13.18442 108.49086 35877 ft 459 kts 216°
2026-05-05 08:56 13.13190 108.45346 35879 ft 460 kts 216°
2026-05-05 08:57 13.07942 108.41612 35882 ft 459 kts 216°
2026-05-05 08:57 13.02703 108.37886 35877 ft 459 kts 216°
2026-05-05 08:58 12.97445 108.34149 35876 ft 459 kts 216°
2026-05-05 08:58 12.92201 108.30423 35881 ft 459 kts 216°
2026-05-05 08:59 12.86944 108.26690 35883 ft 460 kts 216°
2026-05-05 08:59 12.81745 108.23000 35875 ft 459 kts 216°
2026-05-05 09:00 12.76491 108.19273 35878 ft 459 kts 216°
2026-05-05 09:00 12.71252 108.15559 35863 ft 458 kts 215°
2026-05-05 09:01 12.65569 108.12683 35861 ft 460 kts 192°
2026-05-05 09:01 12.59166 108.12227 35856 ft 465 kts 183°
2026-05-05 09:02 12.52697 108.12029 35880 ft 465 kts 182°
2026-05-05 09:02 12.46205 108.11891 35871 ft 470 kts 182°
2026-05-05 09:03 12.39653 108.11760 35887 ft 472 kts 182°
2026-05-05 09:03 12.33101 108.11630 35885 ft 472 kts 182°
2026-05-05 09:04 12.26549 108.11499 35902 ft 471 kts 182°
2026-05-05 09:04 12.19985 108.11369 35902 ft 472 kts 182°
2026-05-05 09:05 12.13426 108.11239 35902 ft 472 kts 182°
2026-05-05 09:05 12.06872 108.11108 35913 ft 472 kts 182°
2026-05-05 09:06 12.00301 108.10977 35905 ft 472 kts 182°
2026-05-05 09:06 11.94860 108.10684 35895 ft 470 kts 193°
2026-05-05 09:06 11.91759 108.09686 35907 ft 467 kts 207°
2026-05-05 09:07 11.89017 108.07935 35905 ft 466 kts 220°
2026-05-05 09:07 11.84133 108.03582 35892 ft 468 kts 223°
2026-05-05 09:08 11.79316 107.99098 35987 ft 468 kts 223°
2026-05-05 09:08 11.76934 107.96856 35882 ft 465 kts 224°
2026-05-05 09:08 11.74559 107.94617 35820 ft 465 kts 223°
2026-05-05 09:09 11.69821 107.90151 35895 ft 467 kts 223°
2026-05-05 09:09 11.65050 107.85653 35883 ft 466 kts 224°
2026-05-05 09:10 11.60288 107.81165 35876 ft 466 kts 223°
2026-05-05 09:10 11.55520 107.76673 35878 ft 466 kts 224°
2026-05-05 09:11 11.50768 107.72199 35864 ft 467 kts 224°
2026-05-05 09:11 11.45982 107.67694 35854 ft 468 kts 224°
2026-05-05 09:12 11.41191 107.63188 35857 ft 468 kts 224°
2026-05-05 09:12 11.36407 107.58690 35836 ft 468 kts 224°
2026-05-05 09:13 11.31666 107.54234 35827 ft 468 kts 224°
2026-05-05 09:13 11.26875 107.49735 35828 ft 468 kts 224°
2026-05-05 09:14 11.22083 107.45235 35821 ft 468 kts 224°
2026-05-05 09:14 11.17294 107.40740 35821 ft 468 kts 224°
2026-05-05 09:15 11.12513 107.36257 35810 ft 468 kts 224°
2026-05-05 09:15 11.07722 107.31765 35813 ft 468 kts 224°
2026-05-05 09:16 11.02925 107.27269 35806 ft 468 kts 224°
2026-05-05 09:16 10.98132 107.22779 35813 ft 468 kts 224°
2026-05-05 09:17 10.92899 107.18932 35789 ft 469 kts 202°
2026-05-05 09:17 10.86620 107.17056 35790 ft 473 kts 196°
2026-05-05 09:18 10.80254 107.15378 35806 ft 472 kts 194°
2026-05-05 09:18 10.73879 107.13758 35797 ft 473 kts 194°
2026-05-05 09:19 10.67512 107.12148 35806 ft 473 kts 194°
2026-05-05 09:19 10.61127 107.10534 35810 ft 472 kts 194°
2026-05-05 09:20 10.54748 107.08923 35801 ft 473 kts 194°
2026-05-05 09:20 10.48365 107.07304 35810 ft 472 kts 194°
2026-05-05 09:21 10.42014 107.05682 35812 ft 471 kts 193°
2026-05-05 09:21 10.35670 107.04063 35811 ft 471 kts 194°
2026-05-05 09:22 10.29295 107.02437 35815 ft 472 kts 194°
2026-05-05 09:22 10.22933 107.00815 35824 ft 473 kts 194°
2026-05-05 09:23 10.16556 106.99190 35814 ft 472 kts 194°
2026-05-05 09:23 10.10183 106.97566 35831 ft 473 kts 194°
2026-05-05 09:24 10.03782 106.95936 35834 ft 474 kts 194°
2026-05-05 09:24 9.97446 106.94323 35839 ft 474 kts 194°
2026-05-05 09:25 9.91045 106.92694 35837 ft 474 kts 194°
2026-05-05 09:25 9.84648 106.91068 35838 ft 474 kts 194°
2026-05-05 09:26 9.78241 106.89438 35839 ft 474 kts 194°
2026-05-05 09:26 9.71846 106.87813 35829 ft 478 kts 194°
2026-05-05 09:27 9.65355 106.86164 35849 ft 481 kts 194°
2026-05-05 09:27 9.58882 106.84506 35835 ft 479 kts 194°
2026-05-05 09:28 9.52409 106.82848 35831 ft 481 kts 194°
2026-05-05 09:28 9.45947 106.81195 35843 ft 479 kts 194°
2026-05-05 09:29 9.39475 106.79539 35839 ft 482 kts 194°
2026-05-05 09:29 9.32968 106.77876 35836 ft 482 kts 194°
2026-05-05 09:30 9.26494 106.76221 35834 ft 482 kts 194°
2026-05-05 09:30 9.19971 106.74554 35840 ft 482 kts 194°
2026-05-05 09:31 9.13479 106.72896 35830 ft 482 kts 194°
2026-05-05 09:31 9.06958 106.71231 35835 ft 483 kts 194°
2026-05-05 09:32 9.00506 106.69585 35834 ft 477 kts 193°
2026-05-05 09:32 8.94096 106.67948 35841 ft 479 kts 193°
2026-05-05 09:33 8.87651 106.66305 35827 ft 477 kts 193°
2026-05-05 09:33 8.81188 106.64658 35840 ft 480 kts 193°
2026-05-05 09:34 8.74763 106.62991 35827 ft 478 kts 198°
2026-05-05 09:34 8.71760 106.61583 35827 ft 477 kts 211°
2026-05-05 09:34 8.68907 106.59844 35829 ft 480 kts 210°
2026-05-05 09:35 8.63200 106.56372 35834 ft 478 kts 211°
2026-05-05 09:35 8.54701 106.51102 35830 ft 478 kts 211°
2026-05-05 09:36 8.49015 106.47573 35838 ft 480 kts 211°
2026-05-05 09:36 8.43339 106.44052 35832 ft 479 kts 211°
2026-05-05 09:37 8.37656 106.40526 35839 ft 479 kts 211°
2026-05-05 09:37 8.31994 106.37017 35834 ft 480 kts 211°
2026-05-05 09:38 8.26316 106.33497 35827 ft 478 kts 211°
2026-05-05 09:38 8.20632 106.29975 35840 ft 480 kts 211°
2026-05-05 09:39 8.14948 106.26455 35830 ft 479 kts 211°
2026-05-05 09:39 8.09278 106.22944 35835 ft 478 kts 211°
2026-05-05 09:40 8.03610 106.19436 35832 ft 480 kts 211°
2026-05-05 09:40 7.97944 106.15930 35836 ft 477 kts 210°
2026-05-05 09:41 7.92283 106.12428 35834 ft 477 kts 211°
2026-05-05 09:41 7.86632 106.08933 35828 ft 477 kts 210°
2026-05-05 09:42 7.80974 106.05436 35833 ft 476 kts 211°
2026-05-05 09:42 7.75321 106.01942 35831 ft 477 kts 211°
2026-05-05 09:43 7.69678 105.98457 35825 ft 476 kts 210°
2026-05-05 09:43 7.64028 105.94967 35827 ft 477 kts 210°
2026-05-05 09:44 7.58371 105.91475 35830 ft 477 kts 211°
2026-05-05 09:44 7.52752 105.88007 35824 ft 476 kts 210°
2026-05-05 09:45 7.47111 105.84527 35832 ft 477 kts 211°
2026-05-05 09:45 7.41453 105.81037 35826 ft 476 kts 210°
2026-05-05 09:46 7.35800 105.77551 35827 ft 477 kts 211°
2026-05-05 09:46 7.30145 105.74065 35830 ft 477 kts 211°
2026-05-05 09:47 7.24509 105.70592 35825 ft 475 kts 211°
2026-05-05 09:47 7.18868 105.67116 35825 ft 475 kts 211°
2026-05-05 09:48 7.13227 105.63643 35829 ft 476 kts 210°
2026-05-05 09:48 7.07587 105.60169 35821 ft 475 kts 210°
2026-05-05 09:49 7.01960 105.56705 35826 ft 475 kts 210°
2026-05-05 09:49 6.96112 105.53643 35838 ft 474 kts 205°
2026-05-05 09:50 6.90209 105.50667 35829 ft 474 kts 206°
2026-05-05 09:50 6.84337 105.47675 35829 ft 475 kts 206°
2026-05-05 09:51 6.78446 105.44673 35832 ft 474 kts 205°
2026-05-05 09:51 6.72560 105.41675 35827 ft 475 kts 206°
2026-05-05 09:52 6.66669 105.38675 35827 ft 474 kts 206°
2026-05-05 09:52 6.60790 105.35681 35831 ft 475 kts 206°
2026-05-05 09:53 6.55900 105.33192 35824 ft 473 kts 206°
2026-05-05 09:53 6.49036 105.29699 35827 ft 473 kts 206°
2026-05-05 09:54 6.43162 105.26710 35830 ft 473 kts 206°
2026-05-05 09:54 6.38295 105.24235 35826 ft 472 kts 206°
2026-05-05 09:55 6.32429 105.21252 35830 ft 473 kts 206°
2026-05-05 09:55 6.26558 105.18267 35825 ft 473 kts 206°
2026-05-05 09:56 6.20693 105.15287 35825 ft 472 kts 206°
2026-05-05 09:56 6.14850 105.12318 35820 ft 472 kts 206°
2026-05-05 09:57 6.08995 105.09343 35823 ft 472 kts 206°
2026-05-05 09:57 6.03134 105.06366 35822 ft 472 kts 206°
2026-05-05 09:58 5.97315 105.03412 35824 ft 472 kts 206°
2026-05-05 09:58 5.91475 105.00447 35822 ft 472 kts 206°
2026-05-05 09:59 5.85624 104.97478 35824 ft 471 kts 206°
2026-05-05 09:59 5.79770 104.94507 35821 ft 471 kts 206°
2026-05-05 10:00 5.73929 104.91545 35826 ft 471 kts 205°
2026-05-05 10:00 5.68086 104.88581 35830 ft 472 kts 205°
2026-05-05 10:01 5.62227 104.85611 35822 ft 472 kts 206°
2026-05-05 10:01 5.56362 104.82637 35821 ft 472 kts 206°
2026-05-05 10:02 5.50527 104.79681 35823 ft 471 kts 205°
2026-05-05 10:02 5.44672 104.76714 35825 ft 471 kts 205°
2026-05-05 10:03 5.38823 104.73750 35826 ft 471 kts 205°
2026-05-05 10:03 5.32971 104.70787 35827 ft 471 kts 205°
2026-05-05 10:04 5.27136 104.67832 35827 ft 471 kts 205°
2026-05-05 10:04 5.21284 104.64869 35824 ft 471 kts 205°
2026-05-05 10:05 5.15435 104.61909 35823 ft 471 kts 205°
2026-05-05 10:05 5.09580 104.58946 35820 ft 471 kts 205°
2026-05-05 10:06 5.03745 104.55994 35821 ft 471 kts 205°
2026-05-05 10:06 4.97907 104.53040 35825 ft 471 kts 205°
2026-05-05 10:07 4.92068 104.50087 35827 ft 471 kts 205°
2026-05-05 10:07 4.85916 104.48062 35817 ft 464 kts 181°
2026-05-05 10:08 4.79499 104.48521 35813 ft 465 kts 173°
2026-05-05 10:08 4.73066 104.49263 35825 ft 466 kts 172°
2026-05-05 10:09 4.66644 104.50063 35820 ft 465 kts 172°
2026-05-05 10:09 4.60206 104.50875 35825 ft 465 kts 172°
2026-05-05 10:10 4.53792 104.51684 35860 ft 467 kts 172°
2026-05-05 10:10 4.50570 104.52091 36102 ft 466 kts 172°
2026-05-05 10:10 4.47358 104.52496 36331 ft 466 kts 172°
2026-05-05 10:11 4.44137 104.52903 36562 ft 466 kts 172°
2026-05-05 10:11 4.40970 104.53302 36778 ft 465 kts 171°
2026-05-05 10:11 4.34513 104.54116 36820 ft 463 kts 171°
2026-05-05 10:12 4.28141 104.54920 36827 ft 463 kts 171°
2026-05-05 10:12 4.21750 104.55713 36824 ft 463 kts 173°
2026-05-05 10:13 4.15380 104.56328 36827 ft 463 kts 173°
2026-05-05 10:13 4.08973 104.56960 36826 ft 463 kts 173°
2026-05-05 10:14 4.02575 104.57594 36827 ft 463 kts 173°
2026-05-05 10:14 3.96165 104.58228 36826 ft 463 kts 173°
2026-05-05 10:15 3.89749 104.58863 36826 ft 463 kts 173°
2026-05-05 10:15 3.83357 104.59496 36827 ft 463 kts 173°
2026-05-05 10:16 3.76945 104.60129 36826 ft 463 kts 173°
2026-05-05 10:16 3.70530 104.60759 36827 ft 463 kts 173°
2026-05-05 10:17 3.64122 104.61388 36831 ft 463 kts 173°
2026-05-05 10:17 3.57728 104.62016 36829 ft 463 kts 173°
2026-05-05 10:18 3.51315 104.62645 36827 ft 463 kts 173°
2026-05-05 10:18 3.44897 104.63275 36825 ft 463 kts 173°
2026-05-05 10:19 3.38489 104.63904 36825 ft 463 kts 173°
2026-05-05 10:19 3.32091 104.64531 36828 ft 463 kts 173°
2026-05-05 10:20 3.25699 104.65158 36827 ft 462 kts 173°
2026-05-05 10:20 3.19286 104.65787 36828 ft 462 kts 173°
2026-05-05 10:21 3.12926 104.66411 36827 ft 462 kts 173°
2026-05-05 10:21 3.09691 104.66696 36535 ft 457 kts 178°
2026-05-05 10:21 3.06578 104.66446 35647 ft 463 kts 191°
2026-05-05 10:22 3.03488 104.65416 34580 ft 474 kts 206°
2026-05-05 10:22 3.00728 104.63601 33876 ft 476 kts 221°
2026-05-05 10:22 2.98370 104.61302 33244 ft 473 kts 224°
2026-05-05 10:22 2.96063 104.58942 32379 ft 476 kts 225°
2026-05-05 10:23 2.93766 104.56540 31430 ft 481 kts 225°
2026-05-05 10:23 2.91459 104.54098 30574 ft 484 kts 225°
2026-05-05 10:23 2.89152 104.51639 29712 ft 487 kts 225°
2026-05-05 10:23 2.86831 104.49160 28680 ft 490 kts 226°
2026-05-05 10:24 2.84497 104.46665 27702 ft 493 kts 226°
2026-05-05 10:24 2.82151 104.44158 26740 ft 495 kts 226°
2026-05-05 10:24 2.79790 104.41636 25918 ft 495 kts 226°
2026-05-05 10:24 2.77444 104.39129 25184 ft 493 kts 226°
2026-05-05 10:25 2.75106 104.36631 24416 ft 491 kts 226°
2026-05-05 10:25 2.72772 104.34138 23676 ft 491 kts 226°
2026-05-05 10:25 2.70455 104.31663 22840 ft 490 kts 226°
2026-05-05 10:25 2.68145 104.29195 22437 ft 479 kts 226°
2026-05-05 10:26 2.65905 104.26803 22197 ft 465 kts 226°
2026-05-05 10:26 2.63723 104.24472 21958 ft 452 kts 226°
2026-05-05 10:26 2.61602 104.22207 21712 ft 441 kts 226°
2026-05-05 10:26 2.59532 104.19997 21492 ft 430 kts 226°
2026-05-05 10:27 2.57514 104.17841 21295 ft 419 kts 226°
2026-05-05 10:27 2.55549 104.15743 21109 ft 409 kts 226°
2026-05-05 10:27 2.53636 104.13700 20933 ft 399 kts 226°
2026-05-05 10:27 2.51625 104.11838 20572 ft 393 kts 212°
2026-05-05 10:28 2.49194 104.10734 20130 ft 388 kts 191°
2026-05-05 10:28 2.46508 104.10501 19742 ft 381 kts 177°
2026-05-05 10:28 2.43888 104.10511 19316 ft 381 kts 179°
2026-05-05 10:28 2.41203 104.10504 18839 ft 382 kts 178°
2026-05-05 10:29 2.38539 104.10501 18375 ft 382 kts 178°
2026-05-05 10:29 2.35876 104.10500 17883 ft 383 kts 178°
2026-05-05 10:29 2.33215 104.10500 17382 ft 382 kts 178°
2026-05-05 10:29 2.30595 104.10500 16919 ft 381 kts 178°
2026-05-05 10:30 2.27964 104.10500 16460 ft 380 kts 178°
2026-05-05 10:30 2.25322 104.10500 16011 ft 378 kts 178°
2026-05-05 10:30 2.22692 104.10500 15558 ft 377 kts 178°
2026-05-05 10:30 2.20073 104.10500 15102 ft 376 kts 179°
2026-05-05 10:31 2.17462 104.10500 14653 ft 375 kts 179°
2026-05-05 10:31 2.14848 104.10500 14200 ft 374 kts 179°
2026-05-05 10:31 2.12247 104.10500 13759 ft 373 kts 179°
2026-05-05 10:31 2.09650 104.10500 13268 ft 373 kts 179°
2026-05-05 10:32 2.07062 104.10500 12788 ft 371 kts 179°
2026-05-05 10:32 2.04499 104.10499 12343 ft 369 kts 179°
2026-05-05 10:32 2.01938 104.10500 11897 ft 367 kts 179°
2026-05-05 10:32 1.99390 104.10500 11456 ft 365 kts 179°
2026-05-05 10:33 1.96860 104.10511 10977 ft 364 kts 179°
2026-05-05 10:33 1.94331 104.10522 10554 ft 362 kts 179°
2026-05-05 10:33 1.91809 104.10534 10130 ft 360 kts 179°
2026-05-05 10:33 1.89314 104.10545 9703 ft 359 kts 179°
2026-05-05 10:34 1.86826 104.10556 9316 ft 355 kts 179°
2026-05-05 10:34 1.84377 104.10566 8956 ft 350 kts 179°
2026-05-05 10:34 1.81954 104.10577 8544 ft 347 kts 180°
2026-05-05 10:34 1.79551 104.10587 8133 ft 345 kts 180°
2026-05-05 10:35 1.77161 104.10598 7727 ft 343 kts 180°
2026-05-05 10:35 1.74787 104.10609 7314 ft 341 kts 180°
2026-05-05 10:35 1.72425 104.10619 6907 ft 339 kts 180°
2026-05-05 10:35 1.70083 104.10629 6479 ft 330 kts 180°
2026-05-05 10:36 1.67834 104.10639 6094 ft 318 kts 180°
2026-05-05 10:36 1.65663 104.10649 5695 ft 307 kts 180°
2026-05-05 10:36 1.63602 104.10513 5271 ft 297 kts 193°
2026-05-05 10:36 1.61725 104.09757 4854 ft 288 kts 207°
2026-05-05 10:37 1.60032 104.08763 4520 ft 278 kts 216°
2026-05-05 10:37 1.58462 104.07779 4197 ft 270 kts 207°
2026-05-05 10:37 1.56779 104.07008 3891 ft 262 kts 203°
2026-05-05 10:37 1.55127 104.06318 3566 ft 256 kts 203°
2026-05-05 10:38 1.53514 104.05636 3254 ft 249 kts 203°
2026-05-05 10:38 1.51946 104.04972 2952 ft 239 kts 203°
2026-05-05 10:38 1.50489 104.04353 2667 ft 216 kts 202°
2026-05-05 10:38 1.49189 104.03802 2404 ft 190 kts 202°
2026-05-05 10:39 1.48060 104.03321 2167 ft 164 kts 203°
2026-05-05 10:39 1.47044 104.02891 1968 ft 157 kts 202°
2026-05-05 10:39 1.46035 104.02463 1784 ft 158 kts 202°
2026-05-05 10:39 1.45035 104.02039 1568 ft 155 kts 202°
2026-05-05 10:40 1.44043 104.01617 1363 ft 155 kts 202°
2026-05-05 10:40 1.43048 104.01196 1166 ft 155 kts 202°
2026-05-05 10:40 1.42054 104.00774 968 ft 154 kts 202°
2026-05-05 10:40 1.41122 104.00377 771 ft 154 kts 203°
2026-05-05 10:41 1.40143 103.99951 584 ft 154 kts 204°
2026-05-05 10:41 1.39171 103.99559 388 ft 153 kts 203°
2026-05-05 10:41 1.38212 103.99152 217 ft 150 kts 205°
2026-05-05 10:41 1.37336 103.98780 45 ft 145 kts 205°
2026-05-05 10:42 1.36165 103.98281 33 ft 66 kts 200°
2026-05-05 10:42 1.35909 103.98293 33 ft 26 kts 175°
2026-05-05 10:42 1.35739 103.98294 33 ft 23 kts 198°
2026-05-05 10:43 1.35606 103.98239 33 ft 19 kts 204°
2026-05-05 10:43 1.35493 103.98192 33 ft 16 kts 204°
2026-05-05 10:43 1.35429 103.98164 33 ft 14 kts 202°
2026-05-05 10:43 1.35326 103.98163 33 ft 10 kts 136°
2026-05-05 10:44 1.35313 103.98199 33 ft 7 kts 81°
2026-05-05 10:44 1.35340 103.98228 33 ft 5 kts 22°
2026-05-05 10:44 1.35375 103.98241 33 ft 8 kts 22°
2026-05-05 10:44 1.35449 103.98272 33 ft 14 kts 23°
2026-05-05 10:45 1.35525 103.98304 33 ft 12 kts 22°
2026-05-05 10:45 1.35587 103.98330 33 ft 9 kts 22°
2026-05-05 10:45 1.35640 103.98352 33 ft 7 kts 22°
2026-05-05 10:45 1.35677 103.98368 33 ft 4 kts 22°
2026-05-05 10:46 1.35697 103.98376 33 ft 2 kts 22°
2026-05-05 10:46 1.35711 103.98382 33 ft 5 kts 22°
2026-05-05 10:46 1.35742 103.98405 33 ft 5 kts 57°
2026-05-05 10:46 1.35751 103.98429 33 ft 4 kts 73°
2026-05-05 10:47 1.35767 103.98481 33 ft 10 kts 71°
2026-05-05 10:47 1.35777 103.98509 33 ft 0 kts 71°
2026-05-05 10:47 1.35781 103.98519 33 ft 4 kts 71°
2026-05-05 10:47 1.35781 103.98520 33 ft 0 kts 71°
2026-05-05 10:48 1.35782 103.98523 33 ft 0 kts 71°